Point Lay, AK

3:14 PM AKST on February 08, 2016 (GMT -0900)
Point Lay

Weather History for PPIZ - January, 2013

Change the Weather History Date:

Friday, January 18, 2013

  Actual Average Record
Temperature  
Mean Temperature -19 °F -  
Max Temperature -13 °F -6 °F 19 °F (2002)
Min Temperature -25 °F -17 °F -31 °F (2008)
Degree Days  
Heating Degree Days 84    
Moisture  
Dew Point -26 °F    
Average Humidity 74    
Maximum Humidity 84    
Minimum Humidity 69    
Precipitation  
Precipitation 0.00 in - - ()
Sea Level Pressure  
Sea Level Pressure 30.89 in    
Wind  
Wind Speed 0 mph (North)    
Max Wind Speed 0 mph    
Max Gust Speed -    
Visibility 3 miles    
Events Snow    
Averages and records for this station are not official NWS values.
T = Trace of Precipitation, MM = Missing Value Source: NWS Daily Summary

Daily Weather History Graph

Daily Weather History Graph

Search for Another Location

Airport or City:

Trip Planner

Search our weather history database for the weather conditions in past years. The results will help you decide how hot, cold, wet, or windy it might be!

Date:

Astronomy

Jan. 18, 2013 Rise Set
Actual Time 12:57 PM AKST 3:08 PM AKST
Civil Twilight 10:55 AM AKST 5:10 PM AKST
Nautical Twilight 9:28 AM AKST 6:37 PM AKST
Astronomical Twilight 8:15 AM AKST 7:51 PM AKST
Moon 11:07 AM AKST (1/18) 3:34 AM AKST (1/18)
Length of Visible Light 6h 15m
Length of Day
2h 10m
Waxing Crescent, 49% of the Moon is Illuminated
Jan 18
Waxing Crescent
Jan 18
First Quarter
Jan 26
Full
Feb 3
Last Quarter
Feb 9
New

Hourly Weather History & Observations

Time (AKST) Temp. Dew Point Humidity Pressure Visibility Wind Dir Wind Speed Gust Speed Precip Events Conditions
12:56 AM -17.9 °F -22.9 °F 78% 30.83 in 10.0 mi Calm Calm - N/A   Overcast
1:56 AM -15.9 °F -20.9 °F 78% 30.84 in 10.0 mi Calm Calm - N/A   Overcast
2:56 AM -15.9 °F -22.0 °F 74% 30.84 in 8.0 mi Calm Calm - N/A   Overcast
3:56 AM -15.9 °F -20.9 °F 78% 30.84 in 10.0 mi Calm Calm - N/A   Overcast
4:56 AM -15.9 °F -22.0 °F 74% 30.84 in 10.0 mi Calm Calm - N/A   Mostly Cloudy
5:09 AM -16.6 °F -23.8 °F 70% 30.83 in 10.0 mi Calm Calm - N/A   Scattered Clouds
5:39 AM -18.4 °F -23.8 °F 76% 30.83 in 10.0 mi Calm Calm - N/A   Mostly Cloudy
5:56 AM -17.0 °F -22.9 °F 74% 30.85 in 10.0 mi Calm Calm - N/A   Overcast
6:10 AM -16.6 °F -23.8 °F 70% 30.83 in 10.0 mi Calm Calm - N/A   Overcast
6:34 AM -16.6 °F -23.8 °F 70% 30.83 in 10.0 mi Calm Calm - N/A   Scattered Clouds
6:56 AM -17.0 °F -22.9 °F 74% 30.85 in 10.0 mi Calm Calm - N/A   Clear
7:11 AM -18.4 °F -25.6 °F 70% 30.83 in 2.5 mi Calm Calm - N/A   Haze
7:14 AM -18.4 °F -25.6 °F 70% 30.83 in 1.2 mi Calm Calm - N/A   Haze
7:18 AM -20.2 °F -25.6 °F 76% 30.84 in 0.8 mi Calm Calm - N/A   Haze
7:27 AM -20.2 °F -27.4 °F 69% 30.84 in 0.8 mi Calm Calm - N/A   Haze
7:35 AM -22.0 °F -27.4 °F 76% 30.84 in 0.5 mi Calm Calm - N/A   Haze
7:56 AM -22.0 °F -27.9 °F 74% 30.86 in 0.5 mi Calm Calm - N/A   Haze
8:37 AM -22.0 °F -27.4 °F 76% 30.85 in 0.8 mi Calm Calm - N/A   Haze
8:56 AM -22.0 °F -29.2 °F 69% 30.86 in 0.8 mi Calm Calm - N/A   Haze
9:30 AM -22.0 °F -27.4 °F 76% 30.86 in 0.8 mi Calm Calm - N/A   Haze
9:41 AM -23.8 °F -29.2 °F 76% 30.86 in 0.8 mi Calm Calm - N/A   Haze
9:49 AM -22.0 °F -27.4 °F 76% 30.86 in 0.5 mi Calm Calm - N/A   Haze
9:56 AM -22.0 °F -27.9 °F 74% 30.88 in 0.5 mi Calm Calm - N/A   Haze
10:09 AM -22.0 °F -27.4 °F 76% 30.86 in 0.8 mi Calm Calm - N/A   Haze
10:27 AM -23.8 °F -29.2 °F 76% 30.86 in 0.8 mi Calm Calm - N/A   Haze
10:45 AM -23.8 °F -29.2 °F 76% 30.87 in 0.8 mi Calm Calm - 0.00 in Snow Light Snow
10:56 AM -22.9 °F -28.8 °F 74% 30.89 in 0.5 mi Calm Calm - 0.00 in Snow Snow
11:18 AM -23.8 °F -29.2 °F 76% 30.88 in 0.8 mi Calm Calm - 0.00 in   Haze
11:39 AM -23.8 °F -29.2 °F 76% 30.88 in 0.5 mi Calm Calm - 0.00 in   Haze
11:56 AM -22.0 °F -27.4 °F 76% 30.88 in 0.2 mi Calm Calm - N/A   Haze
12:08 PM -22.0 °F -27.4 °F 76% 30.89 in 0.2 mi Calm Calm - N/A   Haze
12:16 PM -22.0 °F -27.4 °F 76% 30.89 in 0.2 mi Calm Calm - N/A   Haze
12:32 PM -22.0 °F -27.4 °F 76% 30.89 in 0.2 mi Calm Calm - 0.00 in   Haze
12:48 PM -23.8 °F -29.2 °F 76% 30.89 in 0.2 mi Calm Calm - 0.00 in   Haze
12:56 PM -24.0 °F -29.9 °F 74% 30.91 in 0.2 mi Calm Calm - 0.00 in   Haze
1:06 PM -23.8 °F -29.2 °F 76% 30.90 in 0.2 mi Calm Calm - 0.00 in Snow Heavy Snow
1:13 PM -25.6 °F -31.0 °F 76% 30.90 in 0.2 mi Calm Calm - 0.00 in   Haze
1:36 PM -22.0 °F -29.2 °F 69% 30.90 in 0.2 mi Calm Calm - 0.00 in   Haze
1:56 PM -22.9 °F -28.8 °F 74% 30.92 in 0.2 mi Calm Calm - 0.00 in   Haze
2:34 PM -25.6 °F -31.0 °F 76% 30.90 in 0.2 mi Calm Calm - N/A   Haze
2:46 PM -25.6 °F -32.8 °F 69% 30.90 in 0.2 mi Calm Calm - N/A   Haze
2:56 PM -23.8 °F -29.2 °F 76% 30.90 in 0.8 mi Calm Calm - N/A   Haze
3:07 PM -25.6 °F -32.8 °F 69% 30.90 in 0.2 mi Calm Calm - N/A   Haze
3:15 PM -25.6 °F -32.8 °F 69% 30.90 in 0.8 mi Calm Calm - N/A   Haze
3:18 PM -25.6 °F -32.8 °F 69% 30.90 in 1.2 mi Calm Calm - N/A   Haze
3:20 PM -25.6 °F -32.8 °F 69% 30.90 in 2.5 mi Calm Calm - N/A   Haze
3:27 PM -25.6 °F -32.8 °F 69% 30.90 in 4.0 mi Calm Calm - N/A   Haze
3:56 PM -22.9 °F -29.9 °F 70% 30.92 in 7.0 mi Calm Calm - N/A   Overcast
4:36 PM -18.4 °F -25.6 °F 70% 30.90 in 10.0 mi Calm Calm - N/A   Overcast
4:56 PM -17.0 °F -22.9 °F 74% 30.92 in 10.0 mi Calm Calm - N/A   Overcast
5:34 PM -14.8 °F -20.2 °F 77% 30.91 in 2.0 mi Calm Calm - 0.00 in   Haze
5:56 PM -14.8 °F -18.4 °F 84% 30.91 in 2.0 mi Calm Calm - N/A Snow Light Snow
6:07 PM -14.8 °F -20.2 °F 77% 30.91 in 1.2 mi Calm Calm - 0.00 in Snow Light Snow
6:19 PM -14.8 °F -20.2 °F 77% 30.91 in 1.5 mi Calm Calm - 0.00 in   Haze
6:27 PM -14.8 °F -20.2 °F 77% 30.91 in 1.0 mi Calm Calm - 0.00 in Snow Light Snow
6:56 PM -13.9 °F -19.8 °F 75% 30.93 in 1.5 mi Calm Calm - 0.00 in   Haze
7:04 PM -14.8 °F -20.2 °F 77% 30.91 in 1.2 mi Calm Calm - N/A   Haze
7:16 PM -14.8 °F -20.2 °F 77% 30.91 in - Calm Calm - N/A   Overcast
7:56 PM -15.0 °F -19.8 °F 79% 30.93 in 2.5 mi Calm Calm - N/A   Haze
8:06 PM -14.8 °F -20.2 °F 77% 30.91 in - Calm Calm - N/A   Overcast
8:56 PM -17.9 °F -24.0 °F 74% 30.92 in - Calm Calm - N/A   Overcast
9:56 PM -18.9 °F -24.9 °F 74% 30.94 in - Calm Calm - N/A   Overcast
10:04 PM -18.4 °F -25.6 °F 70% 30.92 in - Calm Calm - N/A   Mostly Cloudy
10:11 PM -18.4 °F -25.6 °F 70% 30.92 in - Calm Calm - N/A   Mostly Cloudy
10:56 PM -17.9 °F -24.0 °F 74% 30.95 in - Calm Calm - N/A   Overcast
11:03 PM -18.4 °F -23.8 °F 76% 30.94 in - Calm Calm - N/A   Overcast
11:30 PM -18.4 °F -23.8 °F 76% 30.94 in - Calm Calm - N/A   Overcast
11:56 PM -15.9 °F -22.0 °F 74% 30.95 in - Calm Calm - N/A   Overcast